CAPE
1711 1381 1396 1759 1826 2037 1968 1681 1608 1687 1739 1761 1633 1503 1462 1557 1521 1407 1265 1178 1048 984 536 214 354 204 45 27 20 59 94 111 85 147 43 25 19 31 69 258 246 72 211
1660 1659 1280 1848 1898 2068 2103 1783 1765 1863 1909 1882 1629 1568 1573 1687 1688 1417 1376 1283 1169 854 279 63 69 24 27 20 24 28 29 21 27 26 26 11 8 23 22 43 81 24 18
1746 1815 1564 1808 1874 1965 2020 2020 1965 2090 2103 1971 1689 1702 1742 1873 1786 1561 1346 1167 966 716 114 42 57 32 30 18 19 30 27 25 15 3 33 13 24 19 15 21 35 14 13
1392 1861 1786 1682 1689 1577 2001 2089 2103 2241 2150 1863 1848 1878 1855 1842 1706 1440 1159 834 660 426 14 20 51 31 24 18 16 9 3 3 3 55 18 21 30 33 27 15 17 11 11
865 1914 1824 1527 1441 1732 1890 2096 1838 2227 1946 1808 1812 1960 1930 1765 1506 1226 803 499 443 309 11 12 15 23 10 13 8 7 0 0 0 37 42 14 25 31 20 11 15 13 17
1010 1470 1255 664 1326 1551 1886 1865 1479 1573 1749 1738 1768 1832 1760 1598 1397 984 648 446 421 327 15 14 15 12 9 3 0 0 0 0 14 12 17 23 17 16 16 10 13 7 10
994 1421 1101 258 809 518 747 1038 1418 1683 1641 1653 1671 1571 1568 1493 1245 800 597 560 547 403 12 3 4 2 3 1 0 0 0 0 0 0 0 5 14 17 20 12 12 12 10
1231 1291 1140 387 939 568 442 30 563 1435 1490 1445 1409 1424 1458 1263 981 733 613 645 560 273 6 4 2 1 0 0 0 0 0 0 0 0 3 5 21 19 15 16 10 11 10
882 926 920 928 1023 208 8 0 20 1191 1317 1255 1096 1162 1065 857 663 731 572 499 430 99 0 1 2 1 0 0 0 0 0 0 0 0 1 5 21 14 15 12 10 10 9
528 697 738 701 418 452 201 120 71 667 791 898 845 857 701 605 538 305 232 341 212 51 0 0 0 0 0 0 0 0 0 0 0 0 1 6 16 12 14 13 13 10 7
512 379 207 433 325 146 155 308 129 112 381 465 621 526 412 810 459 235 127 218 145 28 0 0 0 0 0 0 0 0 0 0 0 0 0 22 19 15 14 13 10 10 8
720 474 173 196 446 177 216 273 201 143 202 702 878 783 685 636 392 148 163 218 100 0 0 0 0 0 0 0 0 0 0 0 0 1 3 29 22 18 14 11 8 6 5
397 340 177 46 83 49 240 269 324 117 143 231 464 592 550 484 306 55 179 257 93 0 0 0 0 0 0 0 0 0 0 0 0 2 3 25 21 17 13 8 4 3 3
179 233 50 34 32 12 4 66 113 78 116 97 111 137 629 202 100 50 87 102 54 0 0 0 0 4 0 0 0 0 0 0 0 3 9 19 26 12 8 7 3 3 2
54 67 44 7 11 8 1 2 10 110 126 84 84 103 125 184 53 4 54 63 66 48 39 19 21 17 0 0 0 0 0 0 0 0 5 14 23 16 9 6 5 2 1
27 12 6 2 1 4 2 4 3 25 76 75 75 52 62 93 60 3 14 0 34 96 102 41 24 1 0 0 0 0 0 0 0 0 1 3 7 19 14 6 4 2 0
15 5 5 3 0 0 1 7 41 2 70 55 20 20 19 101 21 12 2 0 0 0 13 10 8 0 0 0 0 0 0 0 0 0 1 2 1 3 13 15 3 0 0
7 13 5 2 2 1 1 4 15 80 5 17 5 12 26 54 23 6 13 0 0 0 0 0 0 0 0 0 0 0 0 0 0 0 0 2 3 5 5 20 17 1 0
7 6 6 2 3 2 2 2 1 3 2 11 20 6 59 65 28 5 11 0 0 0 0 0 0 0 0 0 0 0 0 0 0 0 0 0 3 4 9 2 14 24 11
9 11 7 7 3 1 5 1 9 7 14 11 21 30 97 70 44 11 11 8 1 0 0 0 0 0 0 0 0 0 0 0 0 0 0 0 0 1 5 17 6 12 0
7 10 10 10 8 0 0 3 3 10 17 13 19 59 80 68 70 99 41 36 4 27 30 5 0 0 0 0 0 0 0 0 0 0 0 0 0 0 2 7 11 4 1
8 7 9 14 7 8 2 0 5 5 9 4 15 76 112 114 90 147 102 69 85 43 27 7 0 3 6 0 0 5 15 1 0 0 0 0 0 0 0 0 2 0 0
14 12 7 8 9 7 21 2 0 0 1 2 10 38 94 111 115 95 95 89 90 82 75 72 86 134 131 34 0 64 127 127 90 0 0 0 0 0 0 0 0 0 0
22 18 15 7 9 12 2 1 1 1 8 2 1 12 49 102 99 85 87 83 101 98 92 134 145 181 166 171 30 0 22 89 129 124 0 0 0 0 0 0 0 0 0
7 25 25 12 10 8 10 3 0 0 43 14 14 2 9 33 32 38 67 83 93 117 126 172 161 179 157 191 162 125 23 50 55 77 108 57 0 0 0 0 0 0 0
2 6 27 24 13 9 10 7 0 0 0 12 6 21 19 3 10 27 49 99 121 124 127 186 227 216 208 198 229 219 184 126 96 63 35 62 124 36 0 0 0 0 0
CIN
-24 -26 -93 -15 -1 -1 -3 -29 -33 -37 -19 -18 -9 -6 -17 0 -4 0 0 0 0 0 0 -6 0 -1 -4 -1 -4 -15 -26 -43 -25 -18 -15 0 0 -1 -29 -1 -1 -2 0
-47 -21 -135 -20 -5 -2 0 -15 -24 -17 -15 -15 -20 -1 -11 0 -9 0 0 0 0 0 -2 -37 -31 0 0 0 -3 -4 -4 -3 -2 0 0 0 0 0 0 -1 -37 0 0
-39 -17 -24 -3 -2 -3 -1 -2 -17 -10 -9 -17 -15 0 0 0 0 -36 0 0 0 0 -9 -39 -18 0 0 0 0 0 -2 -1 -3 -1 -9 0 0 0 0 0 0 0 0
-47 -1 0 -12 -10 -33 -15 0 -1 -1 -3 -9 -8 0 -2 0 0 -10 -7 -2 0 0 0 0 -8 0 0 0 0 -4 -13 -7 -15 -27 -1 0 0 0 0 0 0 0 0
-97 0 0 -31 -19 -6 -47 -1 -1 0 -3 -1 0 0 0 0 -5 -6 -19 -14 0 -1 0 0 0 0 0 0 -1 -7 0 0 0 -11 0 0 0 0 0 0 0 0 0
-78 -17 -52 -160 -26 -20 -5 -5 -3 -3 -3 -8 0 0 0 0 0 -23 -13 -8 0 0 0 0 0 0 0 0 0 0 0 0 -50 0 0 0 0 0 0 0 0 0 0
-87 -18 -58 -257 -90 -10 -17 -19 -12 -1 -8 -9 -2 -4 0 0 -1 -24 -7 0 0 0 0 0 0 0 0 0 0 0 0 0 0 0 0 0 0 0 0 0 0 0 0
-67 -11 -36 -117 -32 -27 -199 -57 -27 -14 -4 -5 -24 -6 0 -6 -1 -3 -3 -2 -1 -2 0 0 0 0 0 0 0 0 0 0 0 0 0 0 0 0 0 0 0 0 0
-81 -49 -43 -32 -3 -88 -34 -16 -1 -4 -2 -5 -31 -9 -5 -6 -32 -3 -3 -2 0 -7 0 0 0 0 0 0 0 0 0 0 0 0 0 0 0 0 0 0 0 0 0
-98 -46 -20 -16 -51 -3 -1 0 -1 -28 -62 -20 -47 -15 -22 -7 -13 -41 -24 -7 -11 -21 0 0 0 0 0 0 0 0 0 0 0 0 0 0 0 0 0 0 0 0 0
-56 -42 -62 -19 -24 -42 -12 0 0 -37 -42 -49 -26 -22 -64 0 -2 -5 -18 -19 -33 -35 0 0 0 0 0 0 0 0 0 0 0 0 0 -1 0 0 0 0 0 0 0
-10 -5 -22 -7 0 0 -2 -3 -2 0 -7 -1 0 0 -1 -1 -1 0 -7 -9 -70 0 0 0 0 0 0 0 0 0 0 0 0 0 0 -1 0 0 0 0 0 0 0
-9 -1 0 -23 -2 -15 0 0 -1 -2 -7 -6 -2 0 -1 0 -1 -29 0 -5 -42 0 0 0 0 0 0 0 0 0 0 0 0 0 -4 -2 0 0 0 0 0 0 0
-15 -7 0 -9 -1 -2 0 -8 -1 -5 -1 -2 -11 -6 -1 -7 -3 -38 -5 -1 -66 0 0 0 0 0 0 0 0 0 0 0 0 0 -2 -5 0 0 0 0 0 0 0
-75 -13 -2 -33 -13 0 0 0 -7 0 0 -1 -2 -11 -8 -2 -18 -81 -50 -31 -40 -34 -11 -51 -44 -51 0 0 0 0 0 0 0 0 0 -7 -3 0 0 0 0 0 0
0 0 -22 0 0 0 0 0 0 -2 0 -1 -1 -13 -21 -1 -15 -106 -96 0 -55 -15 0 -29 -44 -22 0 0 0 0 0 0 0 0 0 -1 -10 -2 0 0 0 0 0
-1 0 0 0 0 0 0 0 -4 -19 0 -1 -4 -27 -36 -25 -94 -118 -167 0 0 -1 -72 -87 -77 0 0 0 0 0 0 0 0 0 0 0 0 -15 -4 0 0 0 0
-6 0 0 0 0 0 0 0 -3 0 -3 -3 -8 -28 -95 -118 -145 -148 -245 0 0 0 0 0 0 0 0 0 0 0 0 0 0 0 0 0 0 0 -10 -4 -1 0 0
0 0 0 0 0 0 0 0 0 0 0 -3 -8 -65 -80 -154 -186 -221 -249 -91 0 0 0 0 0 0 0 0 0 0 0 0 0 0 0 0 0 0 0 -6 -7 -4 -1
0 0 0 0 0 0 0 0 0 -1 -1 -1 -15 -30 -96 -130 -136 -189 -232 -201 -51 0 0 0 0 0 0 0 0 0 0 0 0 0 0 0 0 0 0 0 0 -3 0
0 0 0 0 0 0 0 0 0 0 0 -4 -23 -45 -100 -112 -139 -100 -137 -116 -137 -108 -85 -123 0 0 0 0 0 0 0 0 0 0 0 0 0 0 0 0 0 0 -1
0 0 0 0 0 0 0 -1 0 -1 -4 -24 -36 -48 -40 -50 -36 -20 -25 -44 -50 -70 -75 -118 0 -40 -90 0 0 -20 0 -1 0 0 0 0 0 0 0 0 0 0 0
0 0 0 0 0 0 0 -1 0 -3 -2 0 -22 -34 -36 -6 -13 -32 -35 -36 -53 -46 -72 -92 -73 -36 -23 -73 0 -10 0 0 0 0 0 0 0 0 0 0 0 0 0
0 0 0 0 0 0 0 0 0 0 0 -10 -11 -33 -51 -18 -8 -17 -25 -29 -45 -63 -49 -43 -32 -28 -9 0 -45 -102 -40 -9 0 -1 0 0 0 0 0 0 0 0 0
0 0 0 0 0 0 0 0 0 0 0 -1 -5 -23 -60 -78 -76 -35 -27 -40 -43 -35 -38 -9 -26 -25 -12 -2 0 0 -30 -18 -9 -1 0 -5 0 0 0 0 0 0 0
0 0 0 0 0 0 0 0 0 0 -1 -2 -20 -41 -68 -82 -73 -91 -18 -18 -24 -36 -16 -7 -17 -9 -8 -4 -2 0 0 0 0 0 -4 -2 -1 0 0 0 0 0 0
Wind_Speed
7 7 10 7 5 8 15 20 21 22 23 23 22 22 23 21 24 21 22 21 20 19 22 20 19 19 19 19 19 18 18 17 19 19 18 20 22 20 20 17 20 22 23
4 8 13 8 9 10 15 20 21 22 24 25 24 22 23 21 25 23 21 21 21 21 22 20 19 21 21 19 18 18 18 18 17 18 19 20 19 21 22 21 19 21 22
5 9 13 9 10 10 14 19 23 25 26 27 25 23 23 20 21 28 22 21 22 21 22 21 21 21 21 20 19 17 17 15 14 16 16 15 18 21 22 21 19 21 21
5 7 12 14 15 20 20 20 23 25 26 26 26 25 25 23 22 25 25 23 21 21 23 21 21 21 20 19 18 18 17 11 6 11 13 14 16 21 21 21 21 22 21
6 6 10 15 14 16 21 21 22 24 26 24 25 25 25 24 26 25 25 25 22 22 22 21 21 20 19 17 16 16 15 7 4 10 17 13 13 18 20 19 19 20 20
7 8 4 6 15 15 16 24 26 26 25 26 25 25 25 24 24 28 25 26 24 22 22 22 21 20 17 18 16 15 11 8 9 16 15 14 15 18 18 20 20 19 18
8 7 5 5 5 9 12 22 28 25 24 26 25 25 25 26 25 27 26 25 23 23 22 22 20 20 18 18 17 14 7 6 14 14 14 15 16 18 19 19 19 19 18
7 6 7 3 14 31 26 24 24 26 25 26 27 25 25 26 25 25 24 20 23 23 21 20 19 19 18 17 17 12 6 5 10 13 15 14 17 19 19 19 18 18 18
4 5 6 5 15 19 21 9 33 24 24 25 26 24 24 23 26 22 22 24 24 23 21 20 18 17 18 16 15 10 4 2 11 11 13 12 17 19 19 18 18 18 18
1 2 5 7 9 12 11 11 11 21 25 25 26 23 22 21 21 22 22 23 25 23 22 20 19 16 16 15 14 9 6 3 12 11 10 12 17 19 19 18 17 17 18
4 4 3 3 8 9 7 7 7 1 19 24 21 20 20 17 20 22 19 22 25 22 21 20 19 17 15 14 12 10 13 8 9 8 10 14 17 18 18 18 17 17 17
2 7 5 5 6 7 9 9 8 6 10 14 16 20 13 16 17 17 17 21 25 22 20 19 17 18 16 11 10 10 5 9 7 9 10 12 16 17 17 16 16 16 16
1 4 7 5 4 4 4 4 4 4 5 8 15 15 14 12 12 13 12 12 14 19 12 14 14 11 12 10 10 6 9 8 6 8 12 12 15 16 16 16 14 14 13
4 4 7 7 6 5 3 2 4 5 7 8 12 14 13 9 14 13 11 14 14 12 15 13 9 9 10 10 9 9 8 7 6 8 11 11 13 16 16 15 14 14 13
4 2 8 7 7 6 5 3 3 6 8 15 13 12 10 11 13 12 13 12 13 13 13 12 10 9 9 10 9 9 8 8 8 7 8 9 11 14 15 14 14 13 12
1 3 7 7 6 6 4 7 7 6 7 15 13 12 12 10 12 11 12 12 11 12 11 10 10 10 9 9 9 9 8 8 8 8 9 9 8 9 12 13 13 12 11
1 5 8 7 4 4 3 6 10 11 13 13 12 12 12 14 14 12 11 11 12 11 12 11 10 9 9 8 9 8 7 8 8 8 8 9 10 9 10 11 13 13 12
2 7 8 6 5 3 3 6 10 12 14 12 12 9 11 12 14 10 9 8 10 10 9 9 9 9 8 8 7 7 6 7 8 9 7 7 8 9 8 10 11 12 12
5 8 9 8 7 5 5 5 10 15 11 13 9 9 11 12 11 10 11 9 9 7 8 9 9 8 7 7 7 6 6 7 8 7 9 9 8 8 9 15 11 11 11
7 8 10 9 9 8 6 8 9 10 9 9 7 9 12 11 10 9 9 10 8 7 7 8 9 7 6 5 6 6 5 5 6 7 9 9 10 10 9 8 11 11 11
7 7 11 11 10 8 6 5 7 8 9 6 5 10 13 12 11 10 8 8 7 8 7 8 6 8 5 4 5 5 5 7 8 8 9 9 11 11 11 10 8 8 10
8 8 9 11 12 10 8 5 4 7 5 5 4 6 12 12 11 10 12 11 11 9 9 9 8 6 6 8 6 6 6 8 10 11 10 10 11 10 11 12 11 10 3
11 10 9 10 12 11 11 8 7 6 5 4 6 5 7 13 15 13 15 12 12 10 9 9 10 11 8 7 11 6 4 7 3 8 12 10 11 9 9 8 13 11 11
12 11 13 11 12 13 13 13 13 9 13 10 10 8 7 13 15 15 14 13 13 8 10 11 10 10 10 9 7 9 10 8 6 4 6 8 10 12 8 7 10 14 14
13 13 12 13 13 12 15 12 10 9 10 8 7 12 8 8 9 11 13 14 12 10 11 12 11 12 9 9 8 8 10 10 11 10 12 7 7 9 10 12 12 10 16
13 14 14 14 14 14 13 13 14 13 9 10 10 8 6 8 9 9 14 11 11 10 12 12 11 12 11 10 11 12 11 9 10 10 11 13 11 9 10 7 12 12 10
Wind_Direction
213 203 142 153 162 155 162 155 160 155 152 147 146 146 140 143 134 129 129 129 128 125 119 118 113 109 106 102 95 91 89 89 90 91 91 92 92 87 85 87 90 83 78
297 216 150 174 160 164 160 160 161 159 154 148 146 149 142 148 136 134 129 126 122 120 121 116 115 114 109 107 97 94 98 99 100 102 103 92 87 83 76 71 76 80 76
276 208 169 161 160 165 158 168 167 164 157 150 148 148 140 147 140 129 129 125 121 124 123 118 115 116 112 107 100 101 98 106 120 132 140 101 95 89 86 83 83 86 83
282 216 198 161 180 161 191 187 177 165 157 152 148 147 142 146 142 128 127 121 122 124 126 125 121 119 116 107 103 101 95 98 109 135 97 106 97 93 90 88 86 84 84
256 235 230 163 199 200 182 177 182 169 155 151 148 146 144 147 136 129 127 125 128 128 129 129 124 124 116 111 109 104 106 115 164 132 96 95 96 92 93 98 91 80 76
257 212 238 291 201 204 207 182 185 169 153 149 148 145 146 144 137 129 130 131 131 129 129 126 127 122 117 113 111 111 118 165 195 104 118 114 95 94 91 89 92 89 92
263 221 223 288 178 321 292 216 179 163 155 150 149 147 150 142 138 132 137 138 132 133 127 127 127 123 121 120 119 116 124 217 120 117 110 103 107 109 106 103 101 96 95
278 232 223 256 180 184 201 231 201 152 158 154 148 150 151 143 141 138 139 136 126 124 124 125 124 128 123 121 119 116 144 149 119 113 113 107 115 115 111 106 104 103 100
290 231 220 261 174 195 215 218 251 159 159 152 146 149 150 143 139 139 130 127 124 124 127 126 127 126 124 126 120 118 155 195 118 108 112 115 118 117 112 114 112 110 105
67 205 214 218 191 191 192 234 256 161 164 150 144 148 141 139 133 130 129 127 125 129 130 134 130 125 130 124 119 110 129 191 111 123 108 110 127 121 121 118 114 112 111
109 110 88 210 207 196 187 184 254 360 162 140 139 138 137 143 141 145 133 136 131 135 135 131 128 131 124 117 120 146 198 116 127 112 109 135 132 126 126 125 124 120 114
136 155 163 151 189 200 197 179 162 225 126 139 142 152 148 150 152 143 137 140 134 131 131 128 132 132 157 141 138 193 146 119 121 117 115 137 133 131 131 130 127 124 121
3 173 165 179 203 160 192 161 173 156 150 149 146 160 149 153 140 145 142 145 137 137 140 144 144 160 148 145 163 158 131 145 134 119 128 138 139 138 138 136 134 130 131
260 224 161 175 178 157 132 140 207 161 167 163 169 165 157 148 153 148 154 150 142 155 151 157 161 150 156 149 158 144 146 134 141 123 138 144 152 151 151 149 146 142 136
278 258 171 158 168 163 165 172 204 197 194 156 160 166 161 160 157 154 148 152 149 151 164 163 161 165 162 155 157 149 144 135 141 135 145 156 161 162 159 156 155 153 150
323 178 158 158 153 173 179 209 207 206 183 152 153 162 158 155 160 151 149 148 147 152 161 157 165 163 168 159 157 150 145 149 161 153 142 162 165 167 169 166 166 164 162
183 149 159 144 121 164 226 263 205 194 161 146 146 151 155 160 161 153 142 150 151 151 154 155 164 168 169 172 159 159 160 163 162 170 161 160 170 183 183 180 179 182 179
171 157 145 144 136 115 328 287 175 176 136 135 134 140 143 147 152 142 139 140 143 142 154 153 160 177 171 171 162 162 175 179 181 178 183 188 180 184 192 198 193 197 196
158 150 148 144 133 96 37 59 115 112 117 118 134 135 154 145 142 140 135 134 136 134 156 158 171 176 164 175 172 168 186 195 193 189 194 203 204 208 192 180 209 209 198
157 163 145 149 132 108 75 63 82 98 98 100 119 155 156 136 143 136 131 137 138 140 156 169 170 166 169 174 184 180 194 209 205 204 211 210 210 214 223 211 195 206 194
155 154 160 155 150 129 111 97 102 120 126 112 119 150 158 154 146 145 137 144 148 146 174 174 171 157 157 169 165 192 204 217 223 217 212 212 214 213 216 220 220 210 186
163 158 172 165 160 154 129 120 98 121 123 135 119 150 162 154 157 167 163 180 184 169 169 180 185 171 185 190 209 209 211 200 222 220 220 217 218 217 213 218 217 227 257
173 169 168 168 161 163 143 133 108 94 97 137 169 161 174 156 181 178 181 178 186 186 181 190 199 200 199 196 226 243 222 248 175 195 217 226 220 218 225 211 220 208 211
176 178 174 170 176 164 159 163 162 158 168 182 186 175 164 169 180 188 186 185 190 189 193 203 206 212 228 215 205 239 261 291 256 253 205 217 216 223 215 216 224 220 215
176 178 180 173 174 173 172 171 171 183 175 166 176 182 180 173 181 191 191 196 196 202 207 216 208 215 221 237 221 231 230 241 243 258 271 219 204 224 223 223 224 223 218
181 185 176 180 179 177 182 175 178 188 176 164 174 182 198 194 202 216 213 211 216 213 222 219 213 221 228 229 236 237 243 244 243 239 247 257 258 220 223 219 221 223 221